FW0155 Weather Reports


time (UTC)temp
F
wind
direction
speed
knots
gust
knots
rain 1hr
in
rain 24hr
in
rain mn
in
humidity
%
barometer
mb
20260510213741 41 320 0.0 0.9 0.00 0.00 0.00 71 1014.1
20260510212741 42 326 0.0 0.9 0.00 0.00 0.00 70 1014.1
20260510211740 42 313 0.0 0.9 0.00 0.00 0.00 69 1014.0
20260510210741 42 312 0.0 0.9 0.00 0.00 0.00 68 1014.2
20260510205739 43 312 0.0 0.9 0.00 0.00 0.00 67 1014.4
20260510204739 43 312 0.0 0.0 0.00 0.00 0.00 66 1014.6
20260510203740 43 312 0.0 0.0 0.00 0.00 0.00 65 1014.7
20260510202739 44 312 0.0 0.9 0.00 0.00 0.00 64 1014.7
20260510202215 44 312 0.0 0.0 0.00 0.00 0.00 64 1014.8
20260510200739 44 311 0.0 0.0 0.00 0.00 0.00 63 1014.9
20260510200217 45 312 0.0 0.9 0.00 0.00 0.00 62 1015.0
20260510194738 46 6 0.0 1.7 0.00 0.00 0.00 60 1015.1
20260510193737 46 310 0.0 2.6 0.00 0.00 0.00 59 1015.1
20260510192737 46 25 0.9 2.6 0.00 0.00 0.00 58 1015.2
20260510191736 47 269 0.0 1.7 0.00 0.00 0.00 59 1015.0
20260510190737 47 320 0.9 2.6 0.00 0.00 0.00 58 1015.3
20260510185736 47 273 0.0 5.2 0.00 0.00 0.00 55 1015.4
20260510184734 48 313 1.7 5.2 0.00 0.00 0.00 54 1015.5
20260510183734 48 313 0.9 6.1 0.00 0.00 0.00 55 1015.4
20260510183216 49 282 0.9 3.5 0.00 0.00 0.00 54 1015.4
20260510181735 49 318 0.9 5.2 0.00 0.00 0.00 57 1015.4
20260510180733 48 303 2.6 3.5 0.00 0.00 0.00 58 1015.5
20260510175734 48 310 0.9 3.5 0.00 0.00 0.00 56 1015.8
20260510174732 48 16 1.7 6.1 0.00 0.00 0.00 55 1015.7
20260510173733 49 344 0.9 6.1 0.00 0.00 0.00 55 1015.7
20260510173208 50 289 0.9 6.1 0.00 0.00 0.00 53 1015.9
20260510171731 50 325 1.7 5.2 0.00 0.00 0.00 53 1016.0
20260510170731 51 291 0.0 2.6 0.00 0.00 0.00 54 1016.2
20260510165730 50 350 0.9 5.2 0.00 0.00 0.00 55 1016.3
20260510165215 50 239 1.7 5.2 0.00 0.00 0.00 57 1016.3
20260510163731 51 327 2.6 6.1 0.00 0.00 0.00 56 1016.3
20260510162729 52 335 2.6 6.1 0.00 0.00 0.00 56 1016.6
20260510161729 52 6 2.6 6.1 0.00 0.00 0.00 56 1016.7
20260510161206 54 295 2.6 7.0 0.00 0.00 0.00 52 1016.6
20260510155658 53 278 0.9 6.1 0.00 0.00 0.00 53 1016.9
20260510154657 54 240 0.9 6.1 0.00 0.00 0.00 52 1017.1
20260510153657 53 284 1.7 6.1 0.00 0.00 0.00 53 1017.0
20260510152657 53 21 2.6 7.0 0.00 0.00 0.00 53 1017.1
20260510152119 53 4 0.0 7.0 0.00 0.00 0.00 54 1017.3
20260510150627 54 6 2.6 9.6 0.00 0.00 0.00 53 1017.1
20260510145625 55 280 2.6 8.7 0.00 0.00 0.00 53 1017.6
20260510144626 55 251 0.9 7.8 0.00 0.00 0.00 52 1017.4
20260510143555 57 146 0.0 6.1 0.00 0.00 0.00 47 1017.4
20260510142556 54 314 0.9 6.1 0.00 0.00 0.00 52 1017.6
20260510141555 56 329 3.5 7.8 0.00 0.00 0.00 49 1017.9
20260510140553 56 294 0.9 5.2 0.00 0.00 0.00 49 1017.7
20260510135523 55 237 0.9 5.2 0.00 0.00 0.00 52 1018.0
20260510134523 54 8 2.6 8.7 0.00 0.00 0.00 53 1018.0
20260510133522 55 352 4.3 8.7 0.00 0.00 0.00 53 1017.9
20260510132522 55 4 1.7 7.8 0.00 0.00 0.00 54 1017.9
20260510131451 54 336 2.6 7.0 0.00 0.00 0.00 57 1018.2
20260510130930 55 277 1.7 6.1 0.00 0.00 0.00 56 1018.1
20260510125451 54 352 1.7 8.7 0.00 0.00 0.00 58 1018.2
20260510124450 53 353 5.2 8.7 0.00 0.00 0.00 59 1018.5
20260510123451 54 301 3.5 7.0 0.00 0.00 0.00 59 1018.5
20260510122450 55 345 1.7 6.1 0.00 0.00 0.00 58 1018.5
20260510121449 54 241 0.9 7.0 0.00 0.00 0.00 59 1018.5
20260510120450 55 282 2.6 6.1 0.00 0.00 0.00 57 1018.7
20260510115448 55 242 0.9 6.1 0.00 0.00 0.00 60 1018.6
20260510114449 54 286 0.9 6.1 0.00 0.00 0.00 61 1018.7
20260510113447 55 297 2.6 6.1 0.00 0.00 0.00 60 1019.0
20260510112446 53 250 1.7 7.0 0.00 0.00 0.00 63 1018.7
20260510111417 53 39 0.9 7.0 0.00 0.00 0.00 64 1019.0
20260510110417 52 266 0.0 7.0 0.00 0.00 0.00 66 1019.1
20260510105416 52 295 0.9 7.0 0.00 0.00 0.00 65 1019.2
20260510104416 52 275 1.7 7.0 0.00 0.00 0.00 65 1019.2
20260510103416 52 351 2.6 7.0 0.00 0.00 0.00 66 1019.2
20260510102414 52 305 1.7 7.0 0.00 0.00 0.00 66 1019.2
20260510101416 52 297 1.7 7.8 0.00 0.00 0.00 66 1019.1
20260510100857 52 348 3.5 7.8 0.00 0.00 0.00 66 1019.1
20260510095413 53 319 2.6 7.0 0.00 0.00 0.00 66 1019.3
20260510094413 53 274 0.0 6.1 0.00 0.00 0.00 64 1019.2
20260510093414 52 288 0.9 6.1 0.00 0.00 0.00 67 1019.4
20260510092413 52 238 1.7 6.1 0.00 0.00 0.00 66 1019.4
20260510091412 51 296 1.7 6.1 0.00 0.00 0.00 68 1019.5
20260510090412 52 199 1.7 5.2 0.00 0.00 0.00 69 1019.7
20260510085412 52 2 1.7 7.0 0.00 0.00 0.00 70 1019.6
20260510084848 51 268 0.9 5.2 0.00 0.00 0.00 73 1019.7
20260510083850 50 310 0.9 5.2 0.00 0.00 0.00 75 1019.7
20260510082410 50 279 0.0 6.1 0.00 0.00 0.00 76 1019.6
20260510081852 50 259 1.7 7.0 0.00 0.00 0.00 77 1019.7
20260510080409 50 103 0.0 5.2 0.00 0.00 0.00 77 1019.7
20260510075408 50 333 0.9 7.0 0.00 0.00 0.00 77 1019.7
20260510074849 50 18 1.7 5.2 0.00 0.00 0.00 78 1019.8
20260510073409 50 287 1.7 7.0 0.00 0.00 0.00 78 1019.6
20260510072409 51 280 1.7 6.1 0.00 0.00 0.00 78 1019.6
20260510071409 50 289 2.6 6.1 0.00 0.00 0.00 79 1019.4
20260510070338 50 354 0.9 5.2 0.00 0.00 0.00 80 1019.3
20260510065336 50 308 0.9 2.6 0.00 0.00 0.00 79 1019.4
20260510064336 50 347 1.7 8.7 0.00 0.00 0.00 79 1019.1
20260510063335 51 270 1.7 8.7 0.00 0.00 0.00 78 1019.0
20260510062307 51 350 2.6 7.0 0.00 0.00 0.00 77 1019.0
20260510061306 51 312 0.9 7.0 0.00 0.00 0.00 78 1018.9
20260510060304 51 311 1.7 6.1 0.00 0.00 0.00 79 1018.7
20260510055307 50 242 1.7 6.1 0.00 0.00 0.00 80 1018.7
20260510054303 50 253 0.9 5.2 0.00 0.00 0.00 82 1018.6
20260510053303 50 343 0.9 7.0 0.00 0.00 0.00 84 1018.4
20260510052748 49 308 1.7 6.1 0.00 0.00 0.00 84 1018.8
20260510051302 49 287 0.9 3.5 0.00 0.00 0.00 86 1018.7
20260510050301 49 285 0.0 3.5 0.00 0.00 0.00 87 1018.7
20260510045301 49 308 0.9 3.5 0.00 0.00 0.00 88 1018.7
20260510044734 48 292 0.0 3.5 0.00 0.00 0.00 89 1018.9
20260510043300 48 277 0.9 2.6 0.00 0.00 0.00 89 1018.9
20260510042300 48 291 0.0 1.7 0.00 0.00 0.00 89 1019.1
20260510040734 47 302 0.0 0.9 0.00 0.00 0.00 88 1019.0
20260510035300 47 302 0.0 0.9 0.00 0.00 0.00 87 1019.1
20260510034300 48 300 0.0 0.9 0.00 0.00 0.00 87 1018.9
20260510033258 48 282 0.0 2.6 0.00 0.00 0.00 87 1019.0
20260510032257 48 311 0.0 1.7 0.00 0.00 0.00 88 1019.1
20260510031258 47 312 0.0 1.7 0.00 0.00 0.00 89 1019.2
20260510030732 47 300 0.0 0.9 0.00 0.00 0.00 89 1019.5
20260510025258 48 302 0.0 0.9 0.00 0.00 0.00 89 1019.4
20260510024257 48 299 0.0 1.7 0.00 0.00 0.00 89 1019.5
20260510023257 48 298 0.9 1.7 0.00 0.00 0.00 89 1019.5
20260510022256 48 312 0.0 0.9 0.00 0.00 0.00 88 1019.3
20260510021255 48 355 0.0 0.9 0.00 0.00 0.00 88 1019.4
20260510020254 48 298 0.9 0.9 0.00 0.00 0.00 88 1019.3
20260510015254 48 342 0.0 0.9 0.00 0.00 0.00 88 1019.3
20260510014254 49 352 0.0 0.9 0.00 0.00 0.00 87 1019.5
20260510013223 49 349 0.0 1.7 0.00 0.00 0.00 87 1019.5
20260510012223 49 330 0.0 1.7 0.00 0.00 0.00 87 1019.5
20260510011222 49 317 0.0 1.7 0.00 0.00 0.00 87 1019.3
20260510010224 49 335 0.0 1.7 0.00 0.00 0.00 87 1019.5
20260510005629 49 278 0.0 1.7 0.00 0.00 0.00 86 1019.2
20260510004623 50 318 0.0 2.6 0.00 0.00 0.00 86 1019.2
20260510003153 50 305 0.0 2.6 0.00 0.00 0.00 85 1019.5
20260510002150 50 281 1.7 6.1 0.00 0.00 0.00 83 1019.4
20260510001629 51 254 0.9 3.5 0.00 0.00 0.00 83 1019.6
20260510000632 52 285 0.0 2.6 0.00 0.00 0.00 83 1019.9
20260509235149 52 319 0.0 2.6 0.00 0.00 0.00 84 1020.0
20260509234149 52 335 0.9 2.6 0.00 0.00 0.00 84 1019.9
20260509233149 52 297 0.9 2.6 0.00 0.00 0.00 85 1020.0
20260509232150 52 282 0.0 2.6 0.00 0.00 0.00 84 1019.7
20260509231626 52 277 0.0 2.6 0.00 0.00 0.00 84 1019.8
20260509230147 52 244 0.0 3.5 0.00 0.00 0.00 84 1019.6
20260509225631 52 321 0.9 5.2 0.00 0.00 0.00 84 1019.8
20260509224147 52 262 0.0 6.1 0.00 0.00 0.00 84 1019.4
20260509223146 52 333 1.7 5.2 0.00 0.00 0.00 84 1019.7
20260509222147 52 290 0.0 1.7 0.00 0.00 0.00 85 1019.5
20260509221145 52 315 0.9 3.5 0.00 0.00 0.00 85 1019.6
20260509220145 52 343 0.9 2.6 0.00 0.00 0.00 86 1019.5
20260509215144 52 266 0.0 1.7 0.00 0.00 0.00 87 1019.3